Probability
0 0 0 0 0 0 0 0 0 0 0 0 0 0 0 0 0 0 0 0 0 0 0 0 0 0 0 0 0 0 0 0 0 0 0 0 0 0 0 0 0 0 0 0
0 0 0 0 0 0 0 0 0 0 0 0 0 0 0 0 0 0 0 0 0 0 0 0 0 0 0 0 0 0 0 0 0 0 0 0 0 0 0 0 0 0 0 0
0 0 0 0 0 0 0 0 0 0 0 0 0 0 0 0 0 0 0 0 0 0 0 0 0 0 0 0 0 0 0 0 0 0 0 0 0 0 0 0 0 0 0 0
0 0 0 0 0 0 0 0 0 0 0 0 0 0 0 0 0 0 0 0 0 0 0 0 0 0 0 0 0 0 0 0 0 0 0 0 0 0 0 0 0 0 0 0
0 0 0 0 0 0 0 0 0 0 0 0 0 0 0 0 0 0 0 0 0 0 0 0 0 0 0 0 0 0 0 0 0 0 0 0 0 0 0 0 0 0 0 0
0 0 0 0 0 0 0 0 0 0 0 0 0 0 0 0 0 0 0 0 0 0 0 0 0 0 0 0 0 0 0 0 0 0 0 0 0 0 0 0 0 0 0 0
0 0 0 0 0 0 0 0 0 0 0 0 0 0 0 0 0 0 0 0 0 0 0 0 0 0 0 0 0 0 0 0 0 0 0 0 0 0 0 0 0 0 0 0
0 0 0 0 0 0 0 0 0 0 0 0 0 0 0 0 0 0 0 0 0 0 0 0 0 0 0 0 0 0 0 0 0 0 0 0 0 0 0 0 0 0 0 0
0 0 0 0 0 0 0 0 0 0 0 0 0 0 0 0 0 0 0 0 0 0 0 0 0 0 0 0 0 0 0 0 0 0 0 0 0 0 0 0 0 0 0 0
0 0 0 0 0 0 0 0 0 0 0 0 0 0 0 0 0 0 0 0 0 0 0 0 0 0 0 0 0 0 0 0 0 0 0 0 0 0 0 0 0 0 0 0
0 0 0 0 0 0 0 0 0 0 0 0 0 0 0 0 0 0 0 0 0 0 0 0 0 0 0 0 0 0 0 0 0 0 0 0 0 0 0 0 0 0 0 0
0 0 0 0 0 0 0 0 0 0 0 0 0 0 0 0 0 0 0 0 0 0 0 0 0 0 0 0 0 0 0 0 0 0 0 0 0 0 0 0 0 0 0 0
0 0 0 0 0 0 0 0 0 0 0 0 0 0 0 0 0 0 0 0 0 0 0 0 0 0 0 0 0 0 0 0 0 0 0 0 0 0 0 0 0 0 0 0
0 0 0 0 0 0 0 0 0 0 0 0 0 0 0 0 0 0 0 0 0 0 0 0 0 0 0 0 0 0 0 0 0 0 0 0 0 0 0 0 0 0 0 0
0 0 0 0 0 0 0 0 0 0 0 0 0 0 0 0 0 0 0 0 0 0 0 0 0 0 0 0 0 0 0 0 0 0 0 0 0 0 0 0 0 0 0 0
0 0 0 0 0 0 0 0 0 0 0 0 0 0 0 0 0 0 0 0 0 0 0 0 0 0 0 0 0 0 0 0 0 0 0 0 0 0 0 0 0 0 0 0
0 0 0 0 0 0 0 0 0 0 0 0 0 0 0 0 0 0 0 0 0 0 0 0 0 0 0 0 0 0 0 0 0 0 0 0 0 0 0 0 0 0 0 0
0 0 0 0 0 0 0 0 0 0 0 0 0 0 0 0 0 0 0 0 0 0 0 0 0 0 0 0 0 0 0 0 0 0 0 0 0 0 0 0 0 0 0 0
0 0 0 0 0 0 0 0 0 0 0 0 0 0 0 0 0 0 0 0 0 0 0 0 0 0 0 0 0 0 0 0 0 0 0 0 0 0 0 0 0 0 0 0
0 0 0 0 0 0 0 0 0 0 0 0 0 0 0 0 0 0 0 0 0 0 0 0 0 0 0 0 0 0 0 0 0 0 0 0 0 0 0 0 0 0 0 0
0 0 0 0 0 0 0 0 0 0 0 0 0 0 0 0 0 0 0 0 0 0 0 0 0 0 0 0 0 0 0 0 0 0 0 0 0 0 0 0 0 0 0 0
0 0 0 0 0 0 0 0 0 0 0 0 0 0 0 0 0 0 0 0 0 0 0 0 0 0 0 0 0 0 0 0 0 0 0 0 0 0 0 0 0 0 0 0
0 0 0 0 0 0 0 0 0 0 0 0 0 0 0 0 0 0 0 0 0 0 0 0 0 0 0 0 0 0 0 0 0 0 0 0 0 0 0 0 0 0 0 0
0 0 0 0 0 0 0 0 0 0 0 0 0 0 0 0 0 0 0 0 0 0 0 0 0 0 0 0 0 0 0 0 0 0 0 0 0 0 0 0 0 0 0 0
0 0 0 0 0 0 0 0 0 0 0 0 0 0 0 0 0 0 0 0 0 0 0 0 0 0 0 0 0 0 0 0 0 0 0 0 0 0 0 0 0 0 0 0
0 0 0 0 0 0 0 0 0 0 0 0 0 0 0 0 0 0 0 0 0 0 0 0 0 0 0 0 0 0 0 0 0 0 0 0 0 0 0 0 0 0 0 0
0 0 0 0 0 0 0 0 0 0 0 0 0 0 0 0 0 0 0 0 0 0 0 0 0 0 0 0 0 0 0 0 0 0 0 0 0 0 0 0 0 0 0 0
Height
5870 5866 5862 5858 5855 5851 5848 5844 5841 5838 5834 5832 5828 5825 5822 5819 5816 5812 5810 5807 5804 5801 5799 5796 5794 5792 5790 5789 5787 5787 5785 5784 5783 5782 5781 5780 5779 5779 5779 5778 5778 5778 5778 5778
5871 5867 5864 5860 5857 5853 5850 5847 5844 5841 5838 5835 5832 5829 5826 5823 5820 5817 5814 5811 5808 5805 5802 5800 5797 5795 5793 5791 5790 5789 5787 5786 5784 5783 5782 5781 5780 5779 5778 5777 5777 5776 5776 5775
5873 5870 5866 5863 5859 5855 5852 5849 5846 5844 5842 5838 5835 5833 5830 5827 5824 5821 5818 5815 5812 5809 5806 5804 5801 5799 5796 5794 5792 5791 5789 5787 5785 5784 5782 5780 5779 5778 5777 5776 5775 5774 5773 5772
5875 5872 5868 5867 5861 5857 5854 5852 5849 5846 5844 5841 5839 5837 5834 5831 5828 5824 5821 5818 5815 5812 5810 5807 5805 5802 5800 5797 5795 5793 5791 5789 5787 5785 5783 5781 5779 5778 5776 5775 5773 5772 5771 5769
5877 5873 5870 5867 5863 5859 5857 5854 5851 5849 5847 5844 5842 5840 5837 5834 5831 5828 5825 5822 5819 5816 5814 5811 5808 5806 5803 5801 5798 5796 5793 5791 5789 5786 5784 5782 5780 5778 5776 5774 5772 5770 5768 5766
5879 5875 5872 5870 5865 5862 5860 5857 5854 5852 5849 5847 5845 5843 5841 5838 5835 5832 5829 5826 5823 5820 5817 5815 5812 5809 5807 5804 5801 5799 5796 5793 5791 5788 5785 5783 5781 5778 5776 5774 5771 5769 5766 5764
5881 5878 5874 5871 5867 5864 5862 5861 5857 5854 5852 5850 5847 5846 5844 5840 5838 5835 5832 5830 5827 5824 5822 5819 5816 5813 5811 5808 5805 5802 5799 5796 5793 5790 5787 5784 5781 5779 5776 5773 5771 5768 5765 5762
5882 5879 5878 5873 5869 5867 5865 5861 5858 5856 5854 5852 5850 5848 5846 5843 5841 5839 5836 5834 5831 5828 5826 5823 5821 5818 5815 5811 5808 5805 5802 5799 5795 5792 5789 5786 5783 5780 5777 5773 5770 5767 5764 5761
5884 5883 5878 5875 5872 5869 5866 5863 5860 5858 5856 5854 5852 5850 5848 5846 5844 5842 5840 5837 5835 5832 5830 5827 5824 5821 5818 5815 5812 5808 5805 5802 5798 5795 5792 5788 5785 5781 5778 5775 5771 5768 5765 5761
5884 5881 5879 5876 5873 5870 5867 5864 5862 5860 5858 5856 5854 5852 5850 5849 5847 5845 5842 5840 5838 5836 5833 5831 5828 5825 5822 5818 5815 5811 5808 5805 5801 5798 5794 5791 5787 5784 5780 5777 5773 5770 5766 5763
5883 5882 5879 5877 5874 5872 5869 5866 5864 5861 5859 5857 5856 5854 5852 5850 5849 5847 5845 5843 5841 5838 5836 5833 5831 5828 5825 5822 5818 5815 5811 5808 5804 5801 5797 5794 5790 5786 5783 5779 5776 5772 5769 5765
5883 5881 5880 5878 5875 5873 5870 5868 5865 5863 5861 5859 5857 5855 5853 5852 5850 5848 5847 5845 5843 5840 5838 5836 5833 5830 5827 5824 5821 5818 5814 5811 5808 5804 5800 5797 5793 5789 5786 5782 5779 5775 5772 5768
5882 5880 5879 5877 5875 5872 5870 5868 5866 5864 5862 5860 5858 5856 5854 5853 5851 5850 5848 5846 5844 5842 5840 5838 5835 5832 5830 5827 5824 5821 5817 5814 5811 5807 5804 5800 5796 5793 5789 5786 5782 5779 5776 5772
5880 5879 5877 5875 5874 5872 5870 5868 5866 5864 5862 5860 5859 5857 5855 5853 5852 5850 5848 5847 5845 5843 5841 5839 5837 5834 5832 5829 5826 5823 5820 5817 5814 5810 5807 5803 5800 5796 5793 5789 5786 5783 5780 5776
5878 5876 5875 5873 5872 5870 5869 5867 5866 5864 5862 5860 5859 5857 5855 5853 5852 5850 5849 5847 5845 5843 5841 5839 5837 5835 5833 5830 5828 5825 5822 5819 5816 5813 5810 5806 5803 5800 5796 5793 5790 5787 5783 5780
5874 5873 5872 5871 5870 5868 5867 5866 5865 5863 5862 5860 5858 5857 5855 5853 5851 5850 5848 5846 5845 5843 5841 5839 5837 5836 5834 5831 5829 5827 5824 5821 5818 5815 5812 5809 5806 5803 5799 5796 5793 5790 5787 5785
5870 5869 5868 5868 5867 5866 5865 5863 5862 5861 5860 5859 5857 5855 5854 5852 5851 5849 5847 5846 5844 5842 5841 5839 5837 5835 5833 5831 5829 5827 5825 5822 5820 5817 5814 5812 5809 5806 5802 5799 5797 5794 5791 5788
5865 5865 5864 5864 5863 5862 5861 5860 5859 5858 5857 5856 5855 5854 5852 5851 5849 5848 5846 5844 5843 5841 5840 5838 5836 5835 5833 5831 5829 5827 5825 5823 5821 5819 5816 5813 5811 5808 5805 5802 5800 5797 5794 5792
5858 5859 5859 5858 5858 5857 5857 5856 5855 5855 5854 5853 5852 5851 5850 5848 5847 5845 5844 5842 5841 5840 5838 5836 5835 5833 5832 5830 5829 5827 5825 5823 5821 5819 5817 5815 5812 5810 5807 5805 5802 5800 5797 5795
5851 5851 5852 5852 5852 5852 5851 5851 5850 5850 5849 5848 5848 5847 5846 5845 5844 5843 5841 5840 5839 5837 5836 5835 5833 5832 5830 5829 5827 5826 5824 5823 5821 5819 5817 5815 5813 5811 5809 5806 5804 5802 5799 5797
5842 5843 5844 5844 5845 5845 5845 5844 5844 5844 5843 5843 5843 5842 5841 5840 5840 5839 5838 5837 5836 5834 5833 5832 5831 5829 5828 5827 5825 5824 5823 5821 5820 5818 5817 5815 5813 5811 5810 5807 5805 5803 5801 5799
5832 5833 5834 5835 5836 5836 5837 5837 5837 5837 5836 5836 5836 5836 5835 5835 5834 5833 5833 5832 5831 5830 5829 5828 5827 5826 5825 5824 5822 5821 5820 5819 5818 5816 5815 5814 5812 5811 5809 5808 5806 5804 5802 5800
5820 5822 5823 5824 5825 5826 5827 5828 5828 5828 5828 5828 5828 5828 5828 5828 5827 5827 5827 5826 5826 5825 5824 5824 5823 5822 5821 5820 5819 5818 5817 5816 5815 5814 5813 5811 5810 5809 5808 5806 5805 5803 5802 5800
5807 5808 5810 5811 5813 5815 5816 5817 5817 5818 5819 5819 5819 5819 5819 5819 5819 5819 5819 5819 5819 5819 5818 5818 5817 5817 5816 5815 5814 5813 5812 5812 5811 5810 5809 5808 5807 5806 5805 5804 5803 5802 5800 5799
5792 5793 5795 5797 5799 5801 5802 5804 5805 5807 5807 5808 5809 5809 5809 5810 5810 5810 5810 5810 5810 5810 5810 5810 5810 5810 5810 5809 5809 5808 5807 5807 5806 5805 5804 5804 5803 5802 5801 5800 5799 5799 5798 5797
5776 5778 5780 5782 5784 5786 5788 5790 5791 5793 5794 5795 5796 5797 5798 5799 5799 5800 5800 5801 5801 5801 5801 5801 5802 5802 5802 5802 5802 5802 5801 5801 5800 5800 5799 5798 5798 5797 5796 5796 5795 5794 5793 5793
5758 5760 5763 5765 5767 5769 5771 5774 5776 5778 5779 5781 5782 5783 5785 5786 5787 5788 5788 5789 5790 5790 5791 5791 5792 5792 5793 5793 5793 5793 5793 5793 5793 5793 5793 5792 5792 5791 5791 5790 5790 5789 5788 5788
Wind_Speed
18 17 16 17 17 17 17 17 17 18 18 18 18 18 18 19 19 19 18 17 16 15 15 15 14 13 12 11 9 9 8 8 8 7 6 5 4 3 4 5 6 8 9 10
18 17 16 16 17 17 17 16 17 17 18 18 18 18 18 18 19 19 19 18 18 17 17 16 15 15 14 13 12 11 9 8 8 7 6 5 5 5 5 6 7 8 9 10
18 17 17 17 17 17 17 16 16 16 16 17 18 18 18 18 18 19 18 19 19 18 18 18 17 17 16 15 14 13 12 11 10 9 7 7 7 7 6 6 7 9 10 11
18 18 18 18 17 17 17 16 15 15 15 16 16 17 17 18 19 19 19 19 18 18 18 18 17 17 16 16 16 15 15 14 13 12 11 9 8 8 8 8 8 9 10 11
18 19 19 18 17 16 16 15 15 14 15 15 15 16 17 18 19 19 20 19 19 19 19 19 19 19 18 18 17 17 16 16 15 14 13 12 10 10 9 9 10 10 11 11
18 18 18 18 17 15 15 15 14 14 14 14 15 16 17 17 18 19 20 20 20 20 20 20 20 20 20 19 19 18 18 17 16 16 15 14 13 12 11 11 11 11 11 12
16 17 18 18 17 16 15 14 13 14 14 14 15 16 16 17 18 19 19 20 20 21 21 21 20 20 20 20 20 20 19 18 18 17 16 16 15 14 13 12 12 12 12 12
15 16 16 17 17 16 15 14 13 13 13 14 14 15 15 16 17 18 18 19 19 20 20 20 20 20 20 20 20 20 20 19 18 18 18 17 17 16 15 14 14 13 13 12
13 15 15 16 16 16 16 14 12 12 12 13 13 13 14 14 15 15 16 17 18 18 18 19 19 20 20 20 20 20 20 19 19 19 19 19 18 18 17 16 16 15 14 13
11 12 13 14 15 15 15 15 13 12 11 11 11 12 12 12 13 13 14 15 15 16 16 17 18 19 19 20 20 21 20 20 20 19 19 19 19 19 18 18 17 17 16 15
10 10 11 12 12 13 14 14 13 12 11 10 9 10 10 10 11 11 12 13 13 14 15 16 16 17 18 19 19 20 20 20 20 21 20 20 19 19 19 18 18 18 18 17
9 9 9 9 10 11 12 12 13 12 11 10 9 8 9 9 9 9 10 11 12 12 13 14 15 16 16 17 18 19 19 20 20 20 21 21 20 20 19 19 18 18 18 18
8 8 8 8 9 9 10 10 10 11 11 10 9 8 8 8 8 8 9 9 10 11 11 12 13 14 15 16 17 17 18 19 19 20 20 20 20 20 20 19 19 19 19 19
8 8 8 8 8 8 8 9 9 9 9 9 9 8 8 8 8 8 8 8 9 10 11 11 12 13 14 15 15 16 17 17 18 19 19 19 20 20 20 19 19 19 19 19
9 9 9 8 8 8 8 8 8 8 8 8 8 8 8 8 8 8 8 9 9 9 10 10 11 11 12 13 13 14 15 16 16 17 18 19 19 19 19 19 19 19 19 18
11 11 10 10 9 9 9 8 8 8 8 8 8 8 8 8 8 8 8 8 9 9 10 10 10 11 11 11 11 12 13 14 15 16 17 17 18 18 18 18 18 18 18 18
14 13 12 11 11 10 10 10 9 9 9 9 8 8 8 8 9 9 9 9 9 9 9 9 9 10 10 10 10 11 11 12 13 14 15 15 16 17 17 17 17 17 17 17
17 16 15 14 13 12 12 11 11 11 11 11 10 10 10 9 9 10 10 10 10 10 10 10 9 9 10 10 10 10 10 10 11 12 13 13 14 14 15 15 15 16 16 16
20 19 18 17 16 15 14 14 14 13 13 13 13 12 11 11 11 11 11 11 10 10 10 10 10 10 10 9 9 9 9 9 10 10 11 11 12 13 13 14 14 14 14 14
24 23 21 20 19 18 18 17 16 16 16 15 15 14 14 13 13 13 12 12 11 11 11 11 11 11 10 10 9 9 9 9 9 9 9 9 10 11 12 12 12 12 12 12
28 27 26 24 23 22 21 21 20 20 19 18 18 17 17 16 16 15 15 14 13 13 13 13 12 12 12 11 10 10 10 9 9 9 9 8 9 9 10 10 11 11 11 11
33 32 31 29 28 27 26 25 24 23 23 22 21 21 20 20 19 19 18 18 17 16 15 14 14 13 13 13 12 12 11 10 10 10 9 9 9 8 8 9 9 9 9 9
38 37 36 35 34 32 30 29 28 28 27 26 25 25 24 23 23 22 21 21 20 19 19 18 17 16 15 14 14 13 13 12 12 11 11 10 10 10 9 9 9 9 9 9
44 43 42 41 39 38 36 35 34 33 32 31 30 29 28 27 27 26 25 25 24 23 22 21 20 19 18 17 16 16 15 14 14 14 13 12 12 12 11 11 10 10 9 9
49 49 48 47 45 44 42 41 40 38 37 36 35 34 33 32 31 30 29 28 27 26 25 25 24 23 22 21 19 19 18 17 16 16 16 15 14 14 13 13 12 12 11 11
52 52 51 50 49 48 47 46 45 43 42 41 40 39 38 37 35 34 33 32 31 30 30 28 27 27 26 25 24 22 21 20 19 18 17 17 17 17 16 16 15 14 14 14
55 55 54 53 52 51 51 50 48 47 46 45 44 43 42 41 40 39 38 37 36 35 34 33 32 30 29 29 28 27 26 25 23 22 21 20 19 19 19 19 18 18 17 16
Wind_Direction
26 29 31 32 33 35 39 40 41 42 45 46 45 46 45 44 43 43 42 42 42 42 41 40 42 43 43 43 42 40 38 32 25 21 18 9 348 313 293 279 271 266 261 261
29 31 32 33 35 37 39 40 41 42 45 47 47 47 45 44 44 46 46 46 46 46 45 45 44 45 45 44 42 39 33 25 19 15 8 2 350 337 317 300 289 282 278 275
33 34 34 36 36 38 39 40 42 42 45 46 45 45 44 45 46 47 47 46 47 47 47 47 47 46 44 42 39 37 34 30 25 20 13 4 354 348 337 322 308 298 292 285
36 35 36 36 38 39 40 42 45 45 46 47 46 44 44 45 46 47 47 47 46 46 47 47 46 45 45 43 42 40 38 35 31 25 20 13 5 356 346 335 324 315 306 298
35 35 36 36 38 40 41 43 46 46 46 47 46 45 46 46 47 48 48 48 48 49 49 49 48 47 47 46 44 42 39 36 33 30 26 22 14 4 354 346 336 326 317 309
33 33 34 35 37 38 40 46 47 47 48 49 48 48 49 49 49 49 49 50 50 50 50 48 48 47 47 45 43 42 39 36 34 31 28 24 18 11 4 357 349 339 330 322
32 32 34 34 36 37 40 43 47 48 48 48 48 49 50 50 50 50 51 52 52 51 50 49 48 47 45 43 41 40 38 36 34 32 29 25 22 18 13 8 2 354 344 337
31 32 32 32 34 35 38 41 46 47 47 47 48 48 50 50 50 51 51 51 51 50 49 47 46 44 43 40 39 38 37 36 34 33 30 28 25 22 19 15 12 8 2 357
26 29 30 31 31 33 36 39 42 44 45 46 47 48 48 48 48 49 48 48 48 47 46 44 42 41 39 38 37 37 36 35 33 33 31 30 28 26 25 22 20 18 17 15
18 22 26 28 29 31 33 35 37 38 40 42 44 45 46 45 45 45 44 43 43 42 41 39 38 37 36 36 36 36 35 33 32 32 31 30 29 29 29 29 28 27 27 27
8 13 18 21 24 27 30 32 34 35 35 37 38 38 39 41 40 40 38 37 36 36 35 35 34 34 34 33 33 33 33 33 32 32 32 31 30 31 32 32 32 32 33 33
353 359 4 8 14 20 23 25 28 30 30 30 31 31 31 32 32 32 31 30 30 28 28 29 30 30 30 31 31 31 31 32 31 31 31 32 33 33 33 33 33 34 37 39
335 342 348 353 0 8 13 16 18 22 24 25 24 23 21 20 19 18 18 19 20 20 20 21 23 24 25 26 27 29 29 30 30 30 31 32 33 34 35 35 36 38 40 42
318 324 332 339 344 351 357 3 7 9 12 15 17 16 13 10 7 6 5 3 4 6 9 12 15 18 20 22 24 25 26 28 29 30 29 30 32 34 35 37 38 39 41 44
305 312 319 325 328 331 336 341 348 354 358 0 3 4 3 359 355 353 353 355 352 353 356 360 4 8 11 15 19 21 23 24 25 26 27 28 30 32 33 36 38 40 42 44
295 300 305 310 315 316 317 318 321 329 337 342 343 344 346 346 345 342 339 339 343 344 346 350 352 356 0 4 9 14 17 19 20 21 23 25 27 29 31 33 36 39 41 43
284 288 293 297 301 303 304 305 304 305 311 319 324 326 327 329 331 332 332 330 330 334 338 341 343 345 350 355 358 2 7 11 14 16 19 21 23 26 29 31 34 37 40 42
275 279 283 286 290 293 295 295 296 295 296 299 305 310 312 312 315 318 319 320 321 323 327 330 331 333 337 343 349 352 355 360 5 10 14 16 18 21 25 29 32 35 38 40
270 273 276 279 282 285 287 288 289 290 290 290 291 294 298 301 303 306 309 310 310 313 317 320 322 322 324 327 332 338 343 347 352 359 5 10 13 16 19 23 27 30 34 37
266 269 271 274 276 278 280 282 283 284 285 285 285 286 287 289 292 295 298 300 302 302 305 309 313 317 318 317 318 321 325 330 335 341 347 354 2 8 12 16 19 23 26 29
263 266 268 270 272 273 275 277 278 279 280 281 281 281 281 282 283 284 286 289 293 294 295 296 300 304 308 309 309 308 309 312 317 322 327 332 339 348 357 4 8 12 16 20
261 263 265 267 268 269 270 272 273 274 275 276 277 277 278 278 278 278 278 279 282 284 286 288 291 294 297 299 301 300 298 299 301 304 308 312 316 322 330 339 347 354 359 4
260 261 262 264 265 266 267 268 268 270 271 272 273 274 274 274 275 274 274 275 276 277 278 280 282 284 288 291 293 293 292 290 290 292 294 296 298 300 304 310 318 328 336 343
257 259 260 261 262 264 265 265 266 267 268 269 270 270 271 271 271 271 271 272 273 273 274 274 275 277 278 281 284 286 287 287 285 284 284 286 287 287 288 290 294 300 307 315
255 256 258 259 260 261 262 264 265 265 265 266 266 267 268 268 268 269 269 269 270 270 270 270 270 271 273 274 275 278 279 282 283 281 279 278 279 280 280 280 281 283 287 292
253 255 256 258 259 260 261 262 263 263 264 264 264 264 265 265 266 266 267 267 267 267 268 268 268 268 268 269 270 271 273 275 277 279 278 276 274 274 274 274 275 275 276 278
253 254 255 256 257 258 259 260 261 261 261 261 261 262 262 263 263 264 264 264 265 265 266 266 267 267 266 267 267 267 268 270 271 273 274 275 274 272 271 270 270 271 271 271